Погода в Мишкине

Россия / Удмуртская Республика     57°11′33″N   53°56′47″E
темп.,
°C
ветер,
м/с
пор.,
м/с
влажн.,
%
обл.,
%
осадки,
мм/ч
давл.,
гПа
погр.,
м
22 октября, пт
пт2201:00+2юз512100100 0.6 996344
04:00+3юз410100100 0.6 997264
07:00+4ююз49100100 0.0 997199
10:00+5ююз613100100 0.3 996336
13:00+7ююз81599100 0.1 995631
16:00+8юз71489100 0.1 995723
19:00+8юз71489100 0.0 996806
22:00+9юз81587100 0.1 997747
23 октября, сб
сб2301:00+8зюз81487100 0.0 998778
04:00+9зюз9146779 0.2 10001051
07:00+6зюз7138728 0.0 1002571
10:00+7зюз81280100 0.0 10041103
13:00+8зюз8126745 0.1 10051339
16:00+8зюз6117284 0.2 1007948
19:00+5юз398857 0.0 1009211
22:00+4ююз38905 0.0 1009167
24 октября, вс
вс2401:00+3ююз34915 0.0 100955
04:00+3ю3687100 0.0 1008156
07:00+3ю3892100 0.0 1007214
10:00+5юз478419 0.1 1005465
13:00+4зюз489289 0.6 1006610
16:00+5з7127983 0.8 1007946
19:00+3зюз6118454 0.1 1009637
22:00+3зюз5108193 0.1 1011585
25 октября, пн
пн2501:00+3зюз378998 0.1 1012422
04:00+3зюз468489 0.1 1012417
07:00+2юз3687100 0.0 1012293
10:00+3зюз4678100 0.0 1013580
13:00+4з4575100 0.1 1012775
16:00+1ссз71195100 1.1 1013571
19:000ссз7118097 0.4 1016949
22:00−2ссз6128412 0.4 1018582
26 октября, вт
вт2601:00−2ссз510785 0.0 1019558
04:00−3сз59877 0.0 1021363
07:00−4сз47905 0.0 1022301
10:00−2зсз34745 0.0 1022467
13:00+1з44585 0.0 1021843
16:000юз356281 0.0 1020158
19:00−1ююз386972 0.0 1020277
22:00−1ююз497072 0.0 1018321